Weather in Komsomol'skoe

Kazakhstan     50°25′58″N   60°30′10″E
temp.,
°C
wind,
m/s
gust,
m/s
humid.,
%
clouds,
%
prec.,
mm/h
press.,
hPa
HPBL,
m
25 july, sun
sun2523:00+21n346715 0.2 100772
02:00+20nnw46700 0.0 100899
05:00+18n47800 0.0 1009123
08:00+21n45640 0.0 1011425
11:00+26nnw56330 0.0 10122192
14:00+29nw562611 0.0 10112971
17:00+29nw77248 0.0 10122999
20:00+24n610381 0.0 1014502
26 july, mon
mon2623:00+20n46460 0.0 1015116
02:00+18nne46530 0.0 1016100
05:00+16nne47670 0.0 1017143
08:00+19ne56570 0.0 1018422
11:00+23ne23400 0.0 10181996
14:00+26nnw34275 0.0 10182690
17:00+26nnw54245 0.0 10162886
20:00+23n58324 0.0 1017291
27 july, tue
tue2723:00+18ne49413 0.0 1018215
02:00+16ene36464 0.0 1019125
05:00+15ene354720 0.0 101973
08:00+19ese35372 0.0 1019326
11:00+23e22293 0.0 10182147
14:00+26nnw132562 0.0 10162956
17:00+26sw232388 0.0 10142935
20:00+23ne573274 0.0 1014404
28 july, wed
wed2823:00+19ne48415 0.0 1015147
02:00+17ne344319 0.0 101464
05:00+17ene224479 0.0 101315
08:00+20ene113763 0.0 1013167
11:00+24ssw122774 0.0 10121812
14:00+26nw342524 0.0 10112625
17:00+27nw332573 0.0 10102855
20:00+24n463324 0.0 1010239
29 july, thu
thu2923:00+19ne6115375 0.0 1012270
02:00+19ne6105875 0.0 1012405
05:00+16ne597263 0.0 1012200
08:00+19ene566011 0.0 1013352
11:00+24ne44355 0.0 10121219
14:00+26nnw342819 0.0 10122643
17:00+28nnw55241 0.0 10112881
20:00+24nne45290 0.0 101199